Wasilla, AK

7:01 PM AKDT on April 19, 2018 (GMT -0800)
Wasilla

Weather History for PAWS - November, 2012

Change the Weather History Date:

Wednesday, November 7, 2012

  Actual Average Record
Temperature  
Mean Temperature 8 °F -  
Max Temperature 17 °F 31 °F 46 °F (1979)
Min Temperature -2 °F 15 °F -9 °F (2006)
Degree Days  
Heating Degree Days 58    
Moisture  
Dew Point 1 °F    
Average Humidity 80    
Maximum Humidity 100    
Minimum Humidity 63    
Precipitation  
Precipitation 0.00 in - - ()
Sea Level Pressure  
Sea Level Pressure 30.28 in    
Wind  
Wind Speed 2 mph (West)    
Max Wind Speed 6 mph    
Max Gust Speed -    
Visibility 10 miles    
Events      
Averages and records for this station are not official NWS values.
T = Trace of Precipitation, MM = Missing Value Source: NWS Daily Summary

Daily Weather History Graph

Daily Weather History Graph

Search for Another Location

Airport or City:

Astronomy

Nov. 07, 2012 Rise Set
Actual Time 8:46 AM AKST 4:36 PM AKST
Civil Twilight 7:56 AM AKST 5:26 PM AKST
Nautical Twilight 7:03 AM AKST 6:19 PM AKST
Astronomical Twilight 6:12 AM AKST 7:10 PM AKST
Moon No Moon Rise 2:34 PM AKST (11/7)
Length of Visible Light 9h 30m
Length of Day
7h 50m
Last Quarter, 41% of the Moon is Illuminated
Nov 7
Last Quarter
Nov 13
New
Nov 20
First Quarter
Nov 28
Full
Dec 6
Last Quarter

Hourly Weather History & Observations

Time (AKST) Temp. Windchill Dew Point Humidity Pressure Visibility Wind Dir Wind Speed Gust Speed Precip Events Conditions
12:16 AM 8.6 °F 2.0 °F -0.4 °F 67% 30.14 in 10.0 mi NW 3.5 mph - N/A   Clear
12:36 AM 8.6 °F 2.0 °F 1.4 °F 73% 30.14 in 10.0 mi West 3.5 mph - N/A   Clear
12:56 AM 8.6 °F 0.1 °F 1.4 °F 73% 30.15 in 10.0 mi NW 4.6 mph - N/A   Clear
1:16 AM 8.6 °F 2.0 °F 1.4 °F 73% 30.15 in 10.0 mi North 3.5 mph - N/A   Clear
1:36 AM 6.8 °F -2.0 °F -0.4 °F 72% 30.16 in 10.0 mi West 4.6 mph - N/A   Clear
1:56 AM 6.8 °F - -0.4 °F 72% 30.16 in 10.0 mi Calm Calm - N/A   Clear
2:16 AM 6.8 °F - -0.4 °F 72% 30.17 in 10.0 mi Calm Calm - N/A   Clear
2:36 AM 5.0 °F - -0.4 °F 78% 30.17 in 10.0 mi Calm Calm - N/A   Clear
2:56 AM 3.2 °F -6.2 °F 1.4 °F 92% 30.17 in 10.0 mi WSW 4.6 mph - N/A   Clear
3:36 AM 3.2 °F -4.2 °F 1.4 °F 92% 30.17 in 10.0 mi NNE 3.5 mph - N/A   Clear
3:56 AM 1.4 °F -6.2 °F -5.8 °F 72% 30.18 in 10.0 mi West 3.5 mph - N/A   Clear
4:16 AM 1.4 °F -9.9 °F -0.4 °F 92% 30.18 in 10.0 mi West 5.8 mph - N/A   Clear
4:36 AM 1.4 °F -8.3 °F -0.4 °F 92% 30.18 in 10.0 mi West 4.6 mph - N/A   Clear
4:56 AM 1.4 °F -6.2 °F -0.4 °F 92% 30.18 in 10.0 mi WSW 3.5 mph - N/A   Clear
5:16 AM 1.4 °F - -5.8 °F 72% 30.19 in 10.0 mi Calm Calm - N/A   Clear
5:36 AM 3.2 °F -4.2 °F -0.4 °F 85% 30.20 in 10.0 mi SW 3.5 mph - N/A   Clear
5:56 AM 1.4 °F - -2.2 °F 85% 30.20 in 10.0 mi Calm Calm - N/A   Clear
6:16 AM 1.4 °F - -4.0 °F 78% 30.20 in 10.0 mi Calm Calm - N/A   Clear
6:36 AM 1.4 °F -9.9 °F -2.2 °F 85% 30.21 in 10.0 mi West 5.8 mph - N/A   Clear
6:56 AM -0.4 °F - -4.0 °F 85% 30.22 in 10.0 mi Calm Calm - N/A   Clear
7:16 AM -0.4 °F -8.3 °F -2.2 °F 92% 30.22 in 10.0 mi WSW 3.5 mph - N/A   Clear
7:36 AM -0.4 °F -8.3 °F -2.2 °F 92% 30.23 in 8.0 mi WSW 3.5 mph - N/A   Clear
7:56 AM -0.4 °F -8.3 °F -2.2 °F 92% 30.24 in 10.0 mi West 3.5 mph - N/A   Clear
8:16 AM 1.4 °F - -2.2 °F 85% 30.24 in 10.0 mi Calm Calm - N/A   Clear
8:36 AM -0.4 °F - -5.8 °F 78% 30.24 in 10.0 mi Calm Calm - N/A   Clear
8:56 AM -0.4 °F - -2.2 °F 92% 30.25 in 10.0 mi Calm Calm - N/A   Clear
9:16 AM -2.2 °F - -7.6 °F 78% 30.26 in 10.0 mi Calm Calm - N/A   Clear
9:36 AM -0.4 °F -8.3 °F -2.2 °F 92% 30.27 in 10.0 mi West 3.5 mph - N/A   Clear
9:56 AM 1.4 °F - -5.8 °F 72% 30.28 in 10.0 mi Calm Calm - N/A   Clear
10:16 AM 1.4 °F - -2.2 °F 85% 30.29 in 10.0 mi Calm Calm - N/A   Clear
10:36 AM 5.0 °F - 3.2 °F 92% 30.30 in 10.0 mi Calm Calm - N/A   Clear
10:56 AM 6.8 °F - 1.4 °F 79% 30.30 in 10.0 mi Calm Calm - N/A   Clear
11:16 AM 10.4 °F - 6.8 °F 85% 30.30 in 10.0 mi Calm Calm - N/A   Clear
11:36 AM 12.2 °F 6.1 °F 6.8 °F 79% 30.30 in 10.0 mi SE 3.5 mph - N/A   Clear
11:56 AM 12.2 °F 2.9 °F 6.8 °F 79% 30.30 in 10.0 mi ESE 5.8 mph - N/A   Clear
12:16 PM 14.0 °F 8.2 °F 6.8 °F 73% 30.30 in 10.0 mi East 3.5 mph - N/A   Clear
12:36 PM 15.8 °F 10.2 °F 8.6 °F 73% 30.31 in 10.0 mi SE 3.5 mph - N/A   Clear
12:56 PM 15.8 °F - 8.6 °F 73% 30.31 in 10.0 mi Calm Calm - N/A   Clear
1:16 PM 17.6 °F - 8.6 °F 68% 30.31 in 10.0 mi Calm Calm - N/A   Clear
1:36 PM 17.6 °F 12.3 °F 8.6 °F 68% 30.31 in 10.0 mi SE 3.5 mph - N/A   Clear
1:56 PM 17.6 °F - 6.8 °F 63% 30.32 in 10.0 mi Calm Calm - N/A   Clear
2:16 PM 17.6 °F - 6.8 °F 63% 30.32 in 10.0 mi Calm Calm - N/A   Clear
2:36 PM 17.6 °F - 6.8 °F 63% 30.32 in 10.0 mi Calm Calm - N/A   Clear
2:56 PM 17.6 °F - 6.8 °F 63% 30.32 in 10.0 mi Calm Calm - N/A   Clear
3:16 PM 17.6 °F - 6.8 °F 63% 30.32 in 10.0 mi Calm Calm - N/A   Clear
3:36 PM 17.6 °F - 6.8 °F 63% 30.32 in 10.0 mi Calm Calm - N/A   Clear
3:56 PM 17.6 °F - 6.8 °F 63% 30.32 in 10.0 mi Calm Calm - N/A   Clear
4:16 PM 15.8 °F - 6.8 °F 68% 30.32 in 10.0 mi Calm Calm - N/A   Clear
4:36 PM 14.0 °F - 5.0 °F 67% 30.32 in 10.0 mi Calm Calm - N/A   Clear
4:56 PM 12.2 °F - 3.2 °F 67% 30.33 in 10.0 mi Calm Calm - N/A   Clear
5:16 PM 10.4 °F 4.0 °F 5.0 °F 79% 30.34 in 10.0 mi SSW 3.5 mph - N/A   Clear
5:36 PM 10.4 °F - 6.8 °F 85% 30.34 in 10.0 mi Calm Calm - N/A   Clear
5:56 PM 8.6 °F 2.0 °F 5.0 °F 85% 30.34 in 10.0 mi NNE 3.5 mph - N/A   Clear
6:16 PM 6.8 °F - -0.4 °F 72% 30.35 in 10.0 mi Calm Calm - N/A   Clear
6:36 PM 6.8 °F - 3.2 °F 85% 30.35 in 10.0 mi Calm Calm - N/A   Clear
6:56 PM 5.0 °F - 1.4 °F 85% 30.35 in 10.0 mi Calm Calm - N/A   Clear
7:16 PM 5.0 °F - 5.0 °F 100% 30.35 in 10.0 mi Calm Calm - N/A   Clear
7:36 PM 6.8 °F - 5.0 °F 92% 30.35 in 10.0 mi Calm Calm - N/A   Clear
7:56 PM 5.0 °F - 5.0 °F 100% 30.35 in 10.0 mi Calm Calm - N/A   Clear
8:16 PM 3.2 °F - 1.4 °F 92% 30.35 in 10.0 mi Calm Calm - N/A   Clear
8:36 PM 1.4 °F - -7.6 °F 66% 30.34 in 10.0 mi Calm Calm - N/A   Clear
8:56 PM 1.4 °F - -2.2 °F 85% 30.35 in 10.0 mi Calm Calm - N/A   Clear
9:16 PM 3.2 °F - 1.4 °F 92% 30.35 in 10.0 mi Calm Calm - N/A   Clear
9:36 PM 1.4 °F - -0.4 °F 92% 30.35 in 10.0 mi Calm Calm - N/A   Clear
9:56 PM 1.4 °F - -5.8 °F 72% 30.35 in 10.0 mi Calm Calm - N/A   Clear
10:16 PM 1.4 °F - -5.8 °F 72% 30.36 in 10.0 mi Calm Calm - N/A   Clear
10:36 PM 1.4 °F - -4.0 °F 78% 30.36 in 10.0 mi Calm Calm - N/A   Clear
10:56 PM 1.4 °F - -2.2 °F 85% 30.36 in 10.0 mi Calm Calm - N/A   Clear
11:16 PM 1.4 °F - 1.4 °F 100% 30.36 in 10.0 mi Calm Calm - N/A   Clear
11:36 PM 1.4 °F - -4.0 °F 78% 30.36 in 10.0 mi Calm Calm - N/A   Clear
11:56 PM -0.4 °F - -5.8 °F 78% 30.36 in 10.0 mi Calm Calm - N/A   Clear